Weather History for Paganella, Italy

Change the Weather History Date:

Wednesday, November 6, 2013

  Actual Average Record
Temperature  
Mean Temperature 36 °F -  
Max Temperature 42 °F 33 °F 46 °F (2010)
Min Temperature 30 °F 25 °F 21 °F (2002)
Degree Days  
Heating Degree Days 29    
Moisture  
Dew Point 26 °F    
Average Humidity 67    
Maximum Humidity 100    
Minimum Humidity 45    
Precipitation  
Precipitation 0.00 in 0.06 in - ()
Sea Level Pressure  
Sea Level Pressure 29.72 in    
Wind  
Wind Speed 9 mph ()    
Max Wind Speed 18 mph    
Max Gust Speed -    
Visibility 6.2 miles    
Events Fog    
Averages and records for this station are not official NWS values.
T = Trace of Precipitation, MM = Missing Value Source: Averaged Metar Reports

Daily Weather History Graph

Daily Weather History Graph

Search for Another Location

Airport:

Trip Planner

Search our weather history database for the weather conditions in past years. The results will help you decide how hot, cold, wet, or windy it might be!

Date:

Astronomy

Nov. 06, 2013 Rise Set
Actual Time 7:03 AM CET 4:54 PM CET
Civil Twilight 6:32 AM CET 5:26 PM CET
Nautical Twilight 5:56 AM CET 6:01 PM CET
Astronomical Twilight 5:21 AM CET 6:36 PM CET
Moon 10:07 AM CET (11/6) 7:36 PM CET (11/6)
Length of Visible Light 10h 54m
Length of Day
9h 50m
Waxing Crescent, 11% of the Moon is Illuminated
Nov 6
Waxing Crescent
Nov 10
First Quarter
Nov 17
Full
Nov 25
Last Quarter
Dec 3
New

Hourly Weather History & Observations

Time (CET) Temp. Windchill Dew Point Humidity Pressure Visibility Wind Dir Wind Speed Gust Speed Precip Events Conditions
12:55 AM 30.2 °F 18.1 °F 30.2 °F 100% 29.50 in 0.0 mi SW 18.4 mph - N/A Fog Light Freezing Fog
1:00 AM 30 °F - 29 °F 96%  in 0 mi SW 18.4 mph - - Fog Heavy Fog
1:55 AM 30.2 °F 18.9 °F 28.4 °F 93% 29.50 in - SW 16.1 mph - N/A   Clear
2:55 AM 30.2 °F 18.5 °F 26.6 °F 86% 29.53 in - SW 17.3 mph - N/A   Clear
3:55 AM 30.2 °F 19.8 °F 26.6 °F 86% 29.53 in - SW 13.8 mph - N/A   Clear
4:00 AM 31 °F - 26 °F 73%  in 9 mi SW 13.8 mph - -   Partly Cloudy
4:55 AM 32.0 °F 25.6 °F 24.8 °F 75% 29.56 in - SSW 6.9 mph - N/A   Clear
5:55 AM 32.0 °F 26.4 °F 21.2 °F 64% 29.59 in 6.2 mi SSW 5.8 mph - N/A   Mostly Cloudy
6:55 AM 32.0 °F - 23.0 °F 69% 29.62 in 6.2 mi SSW 2.3 mph - N/A   Mostly Cloudy
7:55 AM 32.0 °F 28.7 °F 23.0 °F 69% 29.62 in 6.2 mi SSW 3.5 mph - N/A   Mostly Cloudy
8:55 AM 32.0 °F - 24.8 °F 75% 29.68 in 6.2 mi Calm Calm - N/A   Mostly Cloudy
9:55 AM 33.8 °F 30.8 °F 24.8 °F 70% 29.68 in 6.2 mi Variable 3.5 mph - N/A   Scattered Clouds
10:00 AM 34 °F - 25 °F 58%  in 16 mi 3.5 mph - -   Scattered Clouds
10:55 AM 35.6 °F - 23.0 °F 60% 29.71 in 6.2 mi Calm Calm - N/A   Scattered Clouds
11:55 AM 35.6 °F 32.8 °F 24.8 °F 65% 29.71 in 6.2 mi SSW 3.5 mph - N/A   Scattered Clouds
12:55 PM 37.4 °F - 28.4 °F 70% 29.74 in 6.2 mi NNW 2.3 mph - N/A   Scattered Clouds
1:00 PM 37 °F - 28 °F 59%  in 25 mi NNW 2.3 mph - -   Mostly Cloudy
1:55 PM 39.2 °F - 30.2 °F 70% 29.74 in 6.2 mi Calm Calm - N/A   Partly Cloudy
2:55 PM 39.2 °F 30.8 °F 28.4 °F 65% 29.74 in 6.2 mi WNW 15.0 mph - N/A   Partly Cloudy
3:55 PM 41.0 °F 34.3 °F 26.6 °F 57% 29.77 in 6.2 mi WNW 11.5 mph - N/A   Partly Cloudy
4:00 PM 41 °F - 27 °F 45%  in 31 mi WNW 11.5 mph - -   Scattered Clouds
4:55 PM 42.8 °F - 26.6 °F 53% 29.80 in - North 2.3 mph - N/A   Clear
5:55 PM 37.4 °F 32.8 °F 28.4 °F 70% 29.83 in - North 5.8 mph - N/A   Clear
6:55 PM 39.2 °F 34.2 °F 24.8 °F 56% 29.83 in - SE 6.9 mph - N/A   Clear
7:00 PM 38 °F - 25 °F 48%  in 25 mi SE 6.9 mph - -  
7:55 PM 37.4 °F 32.8 °F 26.6 °F 65% 29.86 in - South 5.8 mph - N/A   Clear
8:55 PM 37.4 °F 32.1 °F 23.0 °F 56% 29.89 in - South 6.9 mph - N/A   Clear
9:55 PM 37.4 °F 32.1 °F 24.8 °F 60% 29.92 in - SSW 6.9 mph - N/A   Clear
10:00 PM 37 °F - 26 °F 52%  in 25 mi SSW 6.9 mph - -  
10:55 PM 37.4 °F 33.8 °F 26.6 °F 65% 29.92 in - South 4.6 mph - N/A   Clear
11:55 PM 37.4 °F 32.1 °F 24.8 °F 60% 29.95 in - SSW 6.9 mph - N/A   Clear